Regional Weather Roundup
Issued by NWS Kansas City/Pleasant Hill, MO

Home | Current Version | Previous Version | Text Only | Print | Product List | Glossary On
Versions: 1 2 3 4 5 6 7 8 9 10 11 12 13 14 15 16 17 18 19 20 21 22 23 24 25 26 27 28 29 30 31 32 33 34 35 36 37 38 39 40 41 42 43 44 45 46 47 48 49 50
000
ASUS43 KEAX 290804
RWREAX

WEATHER ROUNDUP FOR EASTERN KANSAS AND NORTHWEST MISSOURI
NATIONAL WEATHER SERVICE KANSAS CITY/PLEASANT HILL MO
200 AM CST THU JAN 29 2015

KSZ040-057-103>105-MOZ028-029-037-043-290900-
...KANSAS CITY METROPOLITAN AREA...

CITY           SKY/WX    TMP DP  RH WIND       PRES   REMARKS
K.C. INTL      MOCLDY    46  37  71 NW15G26   29.94R
K.C. DOWNTOWN  PTCLDY    48  37  65 NW12G23   29.96R
LEES SUMMIT    CLEAR     48  37  65 NW20G28   29.94R
OLATHE - IXD   CLEAR     48  37  65 NW25G37   29.97R
OLATHE - OJC   CLEAR     48  37  65 NW17G24   29.95R
LAWRENCE       CLEAR     47  36  65 N18       29.98R

$$

MOZ001>008-011>017-020>025-030>033-038>040-044>046-053-054-290900-
...NORTHERN AND CENTRAL MISSOURI...

CITY           SKY/WX    TMP DP  RH WIND       PRES   REMARKS
ST. JOSEPH     CLOUDY    45  36  70 N26G39    29.98R
MOSBY          PTSUNNY   46  36  66 NW17G26   29.93R
WARRENSBURG    CLEAR     48  36  61 W16G24    29.90R
WHITEMAN AFB   CLEAR     51  38  61 NW17G26   29.88R
CLINTON        CLEAR     54  39  58 NW13      29.89R
SEDALIA        CLEAR     52  37  56 NW21G36   29.87R
WARSAW         NOT AVBL
MARSHALL       CLEAR     54  39  58 NW18G25   29.83R
CHILLICOTHE      N/A     45  35  68 N16G24    29.89R
MOBERLY        CLEAR     50  36  57 W17G23    29.80R
KIRKSVILLE     LGT RAIN  43  36  76 NW20G38   29.81R WCI  34

$$

MOZ041-047>049-056>058-063>065-088>090-097-290900-
...EASTERN AND SOUTHERN MISSOURI...

CITY           SKY/WX    TMP DP  RH WIND       PRES   REMARKS
ST. LOUIS INTL CLOUDY    54  39  57 SW15      29.78R
SPIRIT OF STL  CLOUDY    53  39  59 SW10      29.77S
COLUMBIA       CLEAR     54  40  59 W15G24    29.79R
JEFFERSON CITY CLEAR     53  39  59 W8        29.80R
MEXICO         CLEAR     50  43  76 SW10      29.76R
ROLLA          MOCLDY    50  39  66 SW14      29.80R
LEBANON        PTCLDY    55  41  58 W14G20    29.86R
OSAGE BEACH    PTCLDY    57  39  51 W10G17    29.83R
SPRINGFIELD    MOCLDY    60  38  43 W17G25    29.90R
NEVADA         CLEAR     52  36  54 W12G17    29.94R
JOPLIN         MOCLDY    55  36  48 NW12      29.97R
WEST PLAINS    CLOUDY    51  39  63 SW8       29.90R

$$

IAZ060-094-KSZ022-034>040-054-083-096-NEZ052-066-093-290900-
...KANSAS...SOUTHEAST NEBRASKA AND IOWA...

CITY           SKY/WX    TMP DP  RH WIND       PRES   REMARKS
TOPEKA         CLEAR     49  35  58 NW15      30.01R
MANHATTAN      CLEAR     50  35  56 N7        30.07R
EMPORIA        CLEAR     49  32  52 W14       30.03R
CHANUTE        CLEAR     53  34  48 NW14      30.00R
WICHITA        PTCLDY    51  30  44 NW16      30.08R
OMAHA          CLOUDY    38  29  70 NW26G47   30.02R WCI  26
LINCOLN        CLOUDY    38  30  73 N25G37    30.11R WCI  27
FALLS CITY     CLOUDY    42  34  73 NW30G44   30.02R WCI  31
LAMONI         CLOUDY    38  33  82 NW20G35   29.89R WCI  28
DES MOINES     CLOUDY    37  31  78 N17G35    29.90R WCI  27

$$



USA.gov is the U.S. government's official web portal to all federal, state and local government web resources and services.